Location: Bessat
(45.8735°N, 1.9924°E)
Time: 13:57:49
(UTC+00:00)

Nadezhda 1 Rocket - Pass Details

Date: 11 May 2021
Orbit: 940 x 1006 km, 83.0° (Epoch: 19 June)

Event Time Altitude Azimuth Distance (km) Brightness Sun altitude
Exits shadow 21:19:49 28° 150° (SSE) 1,769 4.8 -17.7°
Maximum altitude 21:22:54 50° 91° (E) 1,244 4.3 -18.0°
Drops below altitude 10° 21:28:53 10° 18° (NNE) 2,729 6.8 -18.6°
Sets 21:31:27 0° 14° (NNE) 3,670 7.6 -18.9°
